| time (UTC) | temp C | wind direction | speed KPH | gust KPH | rain 1hr cm | rain 24hr cm | rain mn cm | humidity % | barometer mb |
| 20260505034542 | 23 | 188 | 6.4 | 19.3 | 0.00 | 0.00 | 0.00 | 82 | 1009.5 |
| 20260505034532 | 23 | 188 | 6.4 | 17.7 | 0.00 | 0.00 | 0.00 | 82 | 1012.0 |
| 20260505033047 | 23 | 172 | 9.7 | 22.5 | 0.00 | 0.00 | 0.00 | 80 | 1009.3 |
| 20260505033037 | 23 | 172 | 8.0 | 22.5 | 0.00 | 0.00 | 0.00 | 81 | 1011.8 |
| 20260505031554 | 23 | 196 | 6.4 | 17.7 | 0.00 | 0.00 | 0.00 | 79 | 1009.3 |
| 20260505031539 | 23 | 196 | 8.0 | 17.7 | 0.00 | 0.00 | 0.00 | 79 | 1011.8 |
| 20260505030046 | 23 | 148 | 4.8 | 14.5 | 0.00 | 0.00 | 0.00 | 78 | 1009.3 |
| 20260505030030 | 23 | 148 | 6.4 | 16.1 | 0.00 | 0.00 | 0.00 | 78 | 1011.7 |
| 20260505024550 | 23 | 183 | 8.0 | 17.7 | 0.00 | 0.00 | 0.00 | 77 | 1009.4 |
| 20260505024544 | 23 | 183 | 8.0 | 16.1 | 0.00 | 0.00 | 0.00 | 77 | 1011.8 |
| 20260505023046 | 23 | 169 | 3.2 | 9.7 | 0.00 | 0.00 | 0.00 | 76 | 1009.3 |
| 20260505023039 | 23 | 169 | 3.2 | 9.7 | 0.00 | 0.00 | 0.00 | 76 | 1011.8 |
| 20260505021544 | 23 | 157 | 3.2 | 9.7 | 0.00 | 0.00 | 0.00 | 75 | 1009.1 |
| 20260505021527 | 23 | 157 | 3.2 | 9.7 | 0.00 | 0.00 | 0.00 | 75 | 1011.8 |
| 20260505020041 | 24 | 157 | 3.2 | 14.5 | 0.00 | 0.00 | 0.00 | 74 | 1008.8 |
| 20260505020027 | 24 | 157 | 3.2 | 11.3 | 0.00 | 0.00 | 0.00 | 75 | 1011.5 |
| 20260505014600 | 24 | 182 | 1.6 | 6.4 | 0.00 | 0.00 | 0.00 | 73 | 1008.6 |
| 20260505014535 | 24 | 182 | 1.6 | 6.4 | 0.00 | 0.00 | 0.00 | 73 | 1011.3 |
| 20260505013044 | 25 | 186 | 3.2 | 11.3 | 0.00 | 0.00 | 0.00 | 71 | 1008.6 |
| 20260505013025 | 25 | 186 | 4.8 | 9.7 | 0.00 | 0.00 | 0.00 | 72 | 1011.3 |
| 20260505011549 | 25 | 160 | 4.8 | 14.5 | 0.00 | 0.00 | 0.00 | 70 | 1008.6 |
| 20260505011524 | 25 | 186 | 3.2 | 14.5 | 0.00 | 0.00 | 0.00 | 71 | 1011.2 |
| 20260505010045 | 25 | 201 | 6.4 | 16.1 | 0.00 | 0.00 | 0.00 | 70 | 1008.6 |
| 20260505010024 | 25 | 206 | 6.4 | 16.1 | 0.00 | 0.00 | 0.00 | 70 | 1011.3 |
| 20260505004542 | 26 | 207 | 6.4 | 17.7 | 0.00 | 0.00 | 0.00 | 69 | 1008.6 |
| 20260505004525 | 26 | 139 | 6.4 | 14.5 | 0.00 | 0.00 | 0.00 | 69 | 1011.3 |
| 20260505003046 | 26 | 160 | 9.7 | 25.7 | 0.00 | 0.00 | 0.00 | 67 | 1008.2 |
| 20260505003023 | 26 | 197 | 9.7 | 24.1 | 0.00 | 0.00 | 0.00 | 68 | 1011.0 |
| 20260505001546 | 26 | 143 | 8.0 | 29.0 | 0.00 | 0.00 | 0.00 | 67 | 1008.3 |
| 20260505001523 | 26 | 157 | 11.3 | 24.1 | 0.00 | 0.00 | 0.00 | 68 | 1011.0 |
| 20260505000049 | 26 | 167 | 8.0 | 22.5 | 0.00 | 0.00 | 0.00 | 68 | 1008.4 |
| 20260505000022 | 26 | 167 | 4.8 | 20.9 | 0.00 | 0.00 | 0.00 | 68 | 1011.2 |
| 20260504234546 | 26 | 184 | 6.4 | 20.9 | 0.00 | 0.00 | 0.00 | 66 | 1008.7 |
| 20260504234521 | 26 | 158 | 6.4 | 17.7 | 0.00 | 0.00 | 0.00 | 67 | 1011.5 |
| 20260504233042 | 26 | 160 | 8.0 | 22.5 | 0.00 | 0.00 | 0.00 | 67 | 1008.8 |
| 20260504233019 | 26 | 139 | 8.0 | 22.5 | 0.00 | 0.00 | 0.00 | 67 | 1011.6 |
| 20260504231547 | 26 | 123 | 8.0 | 19.3 | 0.00 | 0.00 | 0.00 | 67 | 1009.0 |
| 20260504231517 | 26 | 240 | 8.0 | 19.3 | 0.00 | 0.00 | 0.00 | 67 | 1011.7 |
| 20260504230050 | 27 | 138 | 11.3 | 25.7 | 0.00 | 0.00 | 0.00 | 66 | 1009.3 |
| 20260504230015 | 27 | 128 | 12.9 | 25.7 | 0.00 | 0.00 | 0.00 | 67 | 1011.7 |
| 20260504224547 | 27 | 172 | 9.7 | 22.5 | 0.00 | 0.00 | 0.00 | 67 | 1009.6 |
| 20260504224512 | 27 | 155 | 11.3 | 24.1 | 0.00 | 0.00 | 0.00 | 67 | 1012.2 |
| 20260504223043 | 27 | 175 | 4.8 | 16.1 | 0.00 | 0.00 | 0.00 | 66 | 1009.7 |
| 20260504223012 | 27 | 174 | 4.8 | 14.5 | 0.00 | 0.00 | 0.00 | 67 | 1012.3 |
| 20260504221543 | 26 | 179 | 8.0 | 20.9 | 0.00 | 0.00 | 0.00 | 67 | 1009.8 |
| 20260504221512 | 26 | 198 | 6.4 | 19.3 | 0.00 | 0.00 | 0.00 | 67 | 1012.3 |
| 20260504220045 | 27 | 175 | 6.4 | 25.7 | 0.00 | 0.00 | 0.00 | 65 | 1009.9 |
| 20260504220011 | 27 | 159 | 6.4 | 24.1 | 0.00 | 0.00 | 0.00 | 66 | 1012.4 |
| 20260504214551 | 27 | 124 | 8.0 | 19.3 | 0.00 | 0.00 | 0.00 | 66 | 1009.7 |
| 20260504214508 | 27 | 158 | 9.7 | 17.7 | 0.00 | 0.00 | 0.00 | 67 | 1012.2 |
| 20260504213042 | 26 | 192 | 8.0 | 22.5 | 0.00 | 0.00 | 0.00 | 67 | 1010.0 |
| 20260504213005 | 26 | 167 | 8.0 | 19.3 | 0.00 | 0.00 | 0.00 | 68 | 1012.8 |
| 20260504211546 | 26 | 192 | 9.7 | 22.5 | 0.00 | 0.00 | 0.00 | 67 | 1010.5 |
| 20260504211508 | 26 | 176 | 8.0 | 20.9 | 0.00 | 0.00 | 0.00 | 68 | 1013.0 |
| 20260504210107 | 26 | 159 | 8.0 | 19.3 | 0.00 | 0.00 | 0.00 | 69 | 1013.2 |
| 20260504210055 | 26 | 113 | 4.8 | 22.5 | 0.00 | 0.00 | 0.00 | 68 | 1010.7 |
| 20260504204620 | 26 | 206 | 4.8 | 17.7 | 0.00 | 0.00 | 0.00 | 68 | 1013.6 |
| 20260504204607 | 26 | 206 | 6.4 | 22.5 | 0.00 | 0.00 | 0.00 | 68 | 1010.9 |
| 20260504203131 | 26 | 207 | 4.8 | 19.3 | 0.00 | 0.00 | 0.00 | 69 | 1013.9 |
| 20260504203104 | 26 | 153 | 6.4 | 19.3 | 0.00 | 0.00 | 0.00 | 68 | 1011.2 |
| 20260504201556 | 26 | 241 | 8.0 | 19.3 | 0.00 | 0.00 | 0.00 | 68 | 1014.0 |
| 20260504201546 | 26 | 169 | 9.7 | 24.1 | 0.00 | 0.00 | 0.00 | 68 | 1011.5 |
| 20260504200054 | 26 | 185 | 6.4 | 20.9 | 0.00 | 0.00 | 0.00 | 69 | 1014.4 |
| 20260504200049 | 26 | 196 | 6.4 | 22.5 | 0.00 | 0.00 | 0.00 | 68 | 1011.6 |
| 20260504194551 | 26 | 208 | 6.4 | 19.3 | 0.00 | 0.00 | 0.00 | 69 | 1014.5 |
| 20260504194542 | 26 | 207 | 4.8 | 19.3 | 0.00 | 0.00 | 0.00 | 69 | 1011.8 |
| 20260504193051 | 26 | 238 | 6.4 | 17.7 | 0.00 | 0.00 | 0.00 | 69 | 1014.7 |
| 20260504193043 | 26 | 229 | 4.8 | 20.9 | 0.00 | 0.00 | 0.00 | 69 | 1011.9 |
| 20260504191553 | 26 | 192 | 4.8 | 17.7 | 0.00 | 0.00 | 0.00 | 70 | 1014.9 |
| 20260504191542 | 26 | 202 | 4.8 | 19.3 | 0.00 | 0.00 | 0.00 | 69 | 1012.0 |
| 20260504190053 | 25 | 153 | 8.0 | 19.3 | 0.00 | 0.00 | 0.00 | 69 | 1012.1 |
| 20260504184546 | 25 | 180 | 6.4 | 24.1 | 0.00 | 0.00 | 0.00 | 68 | 1012.2 |
| 20260504183050 | 25 | 220 | 6.4 | 24.1 | 0.00 | 0.00 | 0.00 | 69 | 1012.7 |
| 20260504183043 | 26 | 198 | 9.7 | 20.9 | 0.00 | 0.00 | 0.00 | 69 | 1015.4 |
| 20260504181541 | 25 | 170 | 9.7 | 24.1 | 0.00 | 0.00 | 0.00 | 70 | 1012.6 |
| 20260504180053 | 24 | 194 | 11.3 | 20.9 | 0.00 | 0.00 | 0.00 | 72 | 1013.1 |
| 20260504180038 | 24 | 219 | 9.7 | 19.3 | 0.00 | 0.00 | 0.00 | 73 | 1015.7 |
| 20260504174541 | 25 | 216 | 8.0 | 19.3 | 0.00 | 0.00 | 0.00 | 71 | 1013.1 |
| 20260504174538 | 25 | 216 | 6.4 | 19.3 | 0.00 | 0.00 | 0.00 | 71 | 1015.7 |
| 20260504173051 | 24 | 188 | 6.4 | 17.7 | 0.00 | 0.00 | 0.00 | 72 | 1013.2 |
| 20260504173039 | 24 | 208 | 8.0 | 17.7 | 0.00 | 0.00 | 0.00 | 72 | 1015.9 |
| 20260504171545 | 24 | 183 | 6.4 | 22.5 | 0.00 | 0.00 | 0.00 | 72 | 1013.5 |
| 20260504171537 | 24 | 183 | 8.0 | 22.5 | 0.00 | 0.00 | 0.00 | 73 | 1016.3 |
| 20260504081545 | 17 | 216 | 4.8 | 16.1 | 0.00 | 0.00 | 0.00 | 79 | 1015.0 |
| 20260504081533 | 17 | 216 | 6.4 | 14.5 | 0.00 | 0.00 | 0.00 | 80 | 1017.9 |
| 20260504044558 | 20 | 157 | 8.0 | 19.3 | 0.00 | 0.00 | 0.00 | 70 | 1019.9 |
| 20260504044546 | 19 | 132 | 8.0 | 20.9 | 0.00 | 0.00 | 0.00 | 69 | 1017.0 |
| 20260504043100 | 20 | 140 | 9.7 | 20.9 | 0.00 | 0.00 | 0.00 | 68 | 1019.8 |
| 20260504043056 | 20 | 117 | 9.7 | 22.5 | 0.00 | 0.00 | 0.00 | 67 | 1016.9 |
| 20260504041604 | 20 | 146 | 9.7 | 22.5 | 0.00 | 0.00 | 0.00 | 67 | 1019.8 |
| 20260504041549 | 20 | 124 | 9.7 | 22.5 | 0.00 | 0.00 | 0.00 | 66 | 1017.0 |
| 20260504040056 | 20 | 147 | 9.7 | 22.5 | 0.00 | 0.00 | 0.00 | 65 | 1019.9 |
| 20260504040046 | 20 | 139 | 9.7 | 24.1 | 0.00 | 0.00 | 0.00 | 64 | 1017.1 |